Wind_Speed
12 16 17 15 15 16 16 16 14 12 11 10 10 9 8 8 7 6 6 6 5 5 4 4 3 3 4 3 4 4 5 6 7 9 10 9 8 7 8 9 10 10 11 12 13 14 15 16 16 17 18 19 20 20 20 20 20 20 21 22 23 23 23 24 25 25 24 23 22 22 23 23 23 22 21 21 21 20 20 18 17 17 16 16 14
12 15 17 16 15 16 17 15 14 12 12 12 11 10 9 8 7 7 6 6 5 4 4 3 2 2 3 3 3 4 5 6 8 9 10 9 8 7 7 9 9 10 10 11 12 13 15 15 16 16 18 18 19 19 19 19 19 20 21 22 23 25 25 27 27 26 26 25 24 24 24 24 23 22 20 20 19 20 19 19 17 16 16 15 14
14 14 16 17 16 17 17 15 14 12 12 12 12 11 10 9 8 7 7 6 5 4 4 3 2 2 3 3 3 4 4 6 8 10 11 10 9 7 7 8 9 9 9 10 11 13 14 15 15 16 17 17 18 19 19 18 19 19 20 22 23 26 27 29 30 29 27 27 25 24 25 25 24 22 21 20 20 18 18 18 17 16 16 16 14
14 14 16 17 17 17 16 15 14 13 13 12 12 11 10 9 8 8 7 7 6 5 4 3 2 2 3 3 3 4 4 6 8 10 11 10 9 8 7 8 9 8 9 10 10 12 13 14 15 15 16 17 18 18 18 18 18 18 20 21 22 25 27 29 31 32 30 29 27 26 25 25 25 24 22 22 21 19 17 17 16 15 15 14 14
14 14 15 16 17 17 15 14 13 13 13 12 12 11 10 10 9 8 7 7 7 6 5 4 3 3 3 4 4 4 5 6 8 11 12 11 10 8 7 8 8 8 8 9 10 11 12 13 14 15 16 16 17 17 17 17 17 18 19 20 22 24 26 28 31 33 32 31 30 28 27 27 26 25 24 23 22 21 19 17 16 15 14 13 13
13 13 14 15 16 16 14 14 13 13 13 13 12 11 10 9 9 8 8 7 7 7 6 5 4 4 4 4 5 5 5 6 8 11 12 11 10 9 8 8 9 8 8 8 9 10 11 12 13 14 15 15 15 15 16 16 16 17 18 20 21 23 25 27 30 32 33 32 32 31 30 29 28 27 26 25 23 22 21 19 17 17 16 15 15
12 12 13 15 15 14 14 13 13 14 14 13 12 11 10 9 8 8 8 7 8 8 7 7 6 5 5 5 6 5 6 7 8 10 12 11 10 9 8 8 8 8 8 8 8 9 10 11 13 13 13 13 14 14 14 15 15 16 18 19 20 22 23 25 28 31 32 32 32 32 32 32 30 30 28 27 26 24 23 22 21 20 19 18 18
11 11 12 14 14 13 13 13 13 14 13 12 11 10 9 8 8 8 8 8 8 8 8 8 7 7 6 6 7 6 7 8 9 10 12 11 10 10 9 8 8 8 8 7 7 8 9 10 11 12 12 11 12 13 13 13 14 15 17 18 19 20 22 23 25 29 31 31 31 32 32 32 32 31 30 29 28 28 26 25 25 24 23 22 21
10 11 12 13 13 13 13 12 13 13 12 11 10 10 9 8 8 8 8 8 8 8 8 8 8 8 7 7 7 8 8 9 9 10 12 11 10 9 9 9 8 8 7 7 7 7 8 9 10 11 11 10 10 11 11 11 12 14 16 17 17 18 20 21 23 26 28 29 30 31 31 31 31 31 30 30 29 29 28 28 27 26 26 25 24
10 11 12 13 13 13 12 12 12 12 11 10 10 9 8 8 8 8 8 8 8 8 8 9 9 9 9 8 8 9 9 10 10 11 12 11 10 10 10 9 8 8 7 7 7 7 7 8 9 10 10 9 9 9 9 9 10 12 14 16 16 17 18 20 21 23 25 27 29 30 30 30 30 30 30 30 29 29 28 28 27 27 26 26 25
12 13 14 14 14 14 14 13 12 10 10 10 10 9 8 8 8 8 8 8 8 7 8 9 10 10 10 10 9 9 10 10 11 11 12 12 11 11 10 10 9 9 8 7 7 6 6 7 7 8 9 8 7 8 8 8 9 10 12 14 15 15 16 18 19 21 23 24 26 28 28 29 29 29 29 29 28 28 28 27 27 26 26 26 25
14 14 14 15 15 15 14 13 11 10 11 11 10 9 9 8 8 8 7 7 7 7 8 9 10 11 12 11 10 10 11 12 11 12 13 13 12 11 11 11 10 9 9 8 7 6 6 6 6 6 7 8 6 6 6 6 7 8 9 11 13 14 15 16 17 18 20 21 23 25 25 26 27 27 27 27 27 27 27 26 26 26 26 25 25
14 15 15 16 16 15 14 12 11 11 11 11 10 9 9 9 8 7 7 7 7 7 8 9 11 12 13 13 12 12 12 12 12 12 13 13 12 12 12 12 11 10 9 9 8 7 6 6 6 6 6 7 6 5 4 4 5 6 7 9 11 12 13 14 15 16 17 19 21 22 23 24 25 25 25 25 25 25 25 25 25 25 25 25 24
14 15 16 16 16 15 13 12 12 12 12 11 10 10 9 8 8 7 7 8 8 8 8 9 10 12 13 13 13 12 12 12 12 12 13 13 13 13 13 12 12 12 11 10 9 8 7 7 6 6 5 6 6 5 4 3 3 4 6 6 7 9 11 12 14 14 15 16 18 20 21 22 22 23 23 23 23 23 23 23 23 23 23 23 23
14 15 16 16 15 14 14 13 13 13 12 11 10 9 8 7 7 7 8 8 8 8 8 9 10 11 12 13 14 13 12 12 12 13 13 14 14 14 14 14 13 13 12 11 10 9 8 8 7 7 5 4 5 6 4 3 3 3 4 4 5 6 8 10 11 12 13 15 16 18 19 19 20 20 20 20 20 20 20 20 21 21 21 21 21
15 15 16 16 15 15 14 14 13 12 11 10 8 8 7 7 8 8 8 8 8 8 8 9 10 11 11 13 13 13 12 11 11 13 14 15 15 15 15 15 14 13 13 12 11 10 9 8 8 7 5 5 6 6 6 4 3 3 2 3 4 4 5 7 9 10 11 12 13 15 15 16 16 17 17 17 17 18 18 18 18 18 18 19 19
16 16 16 16 15 14 13 12 11 10 9 8 8 8 8 8 8 8 8 8 8 8 9 10 10 11 11 12 12 12 12 11 12 12 13 14 15 16 16 15 15 15 15 13 12 11 10 10 9 7 6 7 9 7 7 6 5 4 3 3 3 3 3 4 6 7 8 9 10 11 12 12 13 14 14 14 15 15 15 15 16 16 16 16 17
16 17 16 15 14 13 11 9 9 9 9 8 8 9 9 9 9 8 8 8 9 9 10 10 10 11 11 11 11 12 11 11 12 12 12 13 14 15 16 16 15 15 15 14 12 11 10 10 9 8 8 9 10 9 8 8 8 7 6 5 4 4 3 3 4 5 6 6 7 8 8 9 10 10 11 12 12 13 13 13 13 13 13 14 14
15 15 15 13 12 11 10 9 9 9 10 9 9 8 8 8 9 9 9 9 10 10 11 11 10 10 10 10 11 11 11 12 12 12 12 13 14 15 15 15 15 15 14 13 11 10 9 9 9 9 9 10 10 10 10 10 10 10 9 8 6 5 4 4 4 4 4 4 4 4 5 6 6 7 8 9 9 10 10 11 11 11 11 11 11
14 14 13 12 11 11 10 10 10 10 10 10 9 8 8 8 9 10 10 10 11 11 11 10 9 10 10 10 11 11 11 12 11 11 12 13 13 13 13 13 13 13 12 11 9 9 8 8 8 8 8 9 10 11 11 12 12 12 11 10 9 8 7 6 5 4 4 4 3 2 2 3 3 4 5 5 6 7 7 8 9 9 10 10 10
12 13 13 12 12 11 10 9 9 9 9 8 8 8 7 8 9 10 10 11 11 12 11 10 9 9 9 10 11 12 12 11 11 11 11 12 12 11 11 11 10 10 10 9 9 8 7 6 6 6 6 6 8 10 12 13 14 14 14 13 11 10 9 8 8 6 5 5 4 4 3 2 1 1 2 3 4 5 5 6 6 7 7 8 8
11 11 11 11 10 8 7 7 7 7 7 7 7 7 8 9 9 10 10 11 11 12 11 10 10 9 10 11 12 12 12 12 12 12 11 11 11 10 10 11 10 9 9 8 8 8 7 6 4 6 6 4 6 8 11 13 15 16 16 15 14 13 12 11 10 10 8 7 7 6 5 4 4 3 4 4 5 5 5 5 5 5 5 5 6
9 8 8 7 6 4 3 3 5 6 6 7 8 8 9 9 9 9 10 11 12 12 11 11 11 10 11 10 10 11 12 13 12 11 11 12 11 10 11 11 10 9 7 7 7 7 6 5 4 7 6 4 5 7 9 12 15 17 17 16 15 14 14 14 13 12 11 10 9 9 8 8 7 7 7 7 7 7 6 6 5 5 5 5 5
6 6 5 4 3 2 1 1 3 4 6 7 8 9 9 9 9 9 10 11 12 12 12 12 11 12 12 11 11 11 11 12 11 12 13 13 13 12 11 9 9 8 7 7 6 6 5 6 6 7 6 5 6 7 7 10 13 16 17 17 17 16 16 16 16 15 14 13 12 12 11 10 10 10 10 10 10 10 9 8 7 6 5 5 5
7 5 5 4 3 3 2 1 2 4 5 7 8 9 10 9 9 9 10 11 11 12 12 12 13 13 13 12 12 12 11 11 11 13 14 14 14 13 11 9 8 8 8 8 7 6 8 9 8 7 7 7 6 6 8 9 11 14 16 17 17 18 18 17 17 16 16 14 14 14 13 13 12 12 12 12 12 12 11 10 9 8 7 6 5
8 6 6 6 6 5 4 3 3 4 6 8 9 10 10 9 9 10 11 11 11 12 12 13 13 14 14 13 12 12 12 12 13 15 15 15 14 12 13 13 9 8 9 9 9 9 9 8 7 8 8 7 5 6 8 9 11 13 15 17 18 18 18 17 16 16 16 14 14 14 14 14 13 13 12 13 13 13 12 12 11 9 8 7 7
9 9 8 9 8 7 6 5 5 7 8 9 9 10 10 10 10 12 12 12 12 13 13 14 14 15 14 13 13 13 12 13 14 15 15 15 14 14 15 13 10 9 10 10 10 9 8 8 9 9 8 6 5 6 7 9 10 12 13 15 17 18 17 16 14 14 14 14 13 13 13 14 13 13 12 12 13 13 13 12 12 11 10 9 8
9 9 8 8 9 9 8 7 7 9 10 10 10 10 11 12 12 13 15 14 13 14 15 16 16 16 15 14 14 14 14 15 16 15 15 15 15 15 14 12 11 11 11 10 9 8 8 10 10 8 7 6 6 6 7 8 9 10 11 13 15 16 15 14 13 12 13 13 13 12 12 13 13 13 12 12 12 13 13 13 12 12 12 11 10
8 8 7 7 10 10 10 9 10 11 11 12 11 11 13 13 14 14 15 14 14 16 17 17 16 16 15 15 16 16 16 17 17 17 16 16 15 14 13 11 11 10 10 9 8 8 9 9 8 7 7 7 7 7 7 7 8 8 9 11 13 13 13 13 12 10 11 13 13 12 12 12 13 13 12 12 12 13 13 13 14 13 13 12 12
9 10 9 9 10 11 11 11 11 11 12 13 12 13 13 14 15 15 15 15 15 16 18 17 16 16 16 17 17 17 17 17 17 17 16 15 13 12 10 9 9 9 8 8 8 8 8 8 7 7 7 8 8 8 8 8 7 7 8 10 11 11 11 11 10 10 10 12 12 13 12 12 13 12 12 12 12 13 13 14 14 14 13 12 11
9 10 12 11 11 12 12 12 12 13 13 13 13 12 12 14 15 16 18 17 16 15 16 17 16 16 17 17 17 17 17 17 17 15 14 13 11 9 8 7 8 7 7 8 8 7 6 6 6 7 8 9 9 9 9 8 7 7 8 9 9 9 10 10 10 10 10 10 11 12 12 12 12 11 12 12 13 13 14 14 14 13 12 10 9
8 10 11 11 11 12 12 13 13 13 13 13 13 12 13 15 15 18 19 16 15 14 14 15 15 16 17 17 17 18 18 17 15 14 13 12 9 8 8 8 7 7 8 8 7 6 5 5 6 7 9 9 10 10 10 9 8 8 8 9 8 8 9 9 9 9 10 10 11 11 11 11 11 11 11 11 12 12 12 12 11 11 10 8 8
6 10 12 11 11 12 12 13 14 13 14 15 14 13 14 14 14 16 16 13 13 12 13 14 14 15 17 17 18 19 19 17 14 12 11 10 9 9 9 8 7 8 8 6 5 5 5 5 6 7 8 9 10 10 10 10 9 9 9 8 8 7 7 7 8 9 9 9 10 9 8 8 8 8 8 8 8 8 8 8 8 8 7 6 6
1 6 10 10 10 11 12 13 14 14 16 16 13 12 13 13 13 15 15 14 13 12 12 13 13 15 17 18 19 19 17 15 12 11 10 8 7 8 7 6 6 7 6 5 4 4 5 6 7 7 7 8 9 9 10 11 10 10 9 7 7 6 6 7 6 7 6 6 7 6 6 5 5 5 4 4 3 4 5 5 5 5 5 5 4
6 5 10 12 11 12 14 14 14 15 17 15 12 13 13 13 14 14 14 14 12 12 12 12 13 15 18 19 19 18 13 11 12 11 9 8 7 6 6 6 6 6 5 4 4 4 6 7 7 6 7 7 7 8 9 10 9 9 8 7 7 7 7 7 5 5 5 4 5 4 3 3 2 1 1 1 2 3 3 3 3 3 3 4 5
10 10 13 14 13 14 14 15 14 15 17 15 13 14 12 12 14 13 12 11 11 12 11 12 14 15 17 18 17 16 12 11 14 13 10 10 9 9 9 8 8 7 6 4 4 5 6 7 7 6 6 6 7 7 8 8 8 7 7 7 8 8 6 6 4 3 4 3 3 1 1 1 1 1 1 2 2 2 2 2 3 4 4 5 5
11 12 13 13 13 14 15 15 15 15 17 15 13 13 12 13 13 12 12 11 12 12 12 13 14 15 16 16 16 15 12 12 15 14 13 12 12 11 10 9 9 8 6 5 5 5 6 7 7 7 7 7 7 7 7 8 7 6 5 6 8 8 6 6 4 3 3 2 1 2 3 3 3 3 3 3 3 3 3 3 4 5 5 6 6
11 12 13 13 14 15 16 16 15 14 14 12 12 12 12 13 12 12 13 14 14 13 13 14 15 15 15 15 15 12 11 12 14 13 13 12 11 10 9 9 9 8 7 6 6 6 7 7 7 7 8 8 8 7 7 7 6 5 5 6 6 6 6 5 4 3 3 2 3 4 5 5 5 4 3 3 3 3 3 3 4 4 5 6 6
11 12 13 14 15 16 16 16 14 12 13 13 12 12 12 13 12 13 14 14 14 13 13 15 16 17 16 15 14 12 12 13 14 13 13 12 11 10 10 10 9 8 7 7 7 7 7 7 8 8 7 8 8 8 8 8 6 5 5 5 6 5 5 5 4 4 3 4 6 6 5 5 4 3 2 2 3 3 2 3 4 5 5 5 5
11 12 14 15 15 15 15 15 12 11 13 13 13 12 13 13 12 13 13 13 12 12 13 14 16 16 15 15 14 13 13 14 14 14 14 13 12 11 11 10 9 9 8 8 8 7 7 7 8 8 7 7 8 9 10 9 7 6 5 5 7 6 5 4 4 5 5 5 5 5 4 4 3 2 2 3 4 4 3 3 4 5 4 5 5
10 11 13 14 15 15 15 13 10 9 11 12 11 11 12 11 11 11 11 11 10 10 11 12 13 13 13 13 13 13 13 13 14 15 15 15 14 12 11 11 10 10 9 9 8 8 7 8 8 8 7 7 8 10 11 9 8 6 5 6 6 6 5 6 5 5 4 4 4 4 3 3 2 2 3 4 5 4 4 4 5 4 4 5 6
10 11 12 14 15 15 14 12 9 8 11 12 11 10 10 10 9 9 10 10 10 11 11 11 12 12 13 13 12 12 12 12 13 14 15 15 14 13 12 12 11 10 10 9 9 9 8 8 8 8 8 8 9 11 10 8 8 7 6 7 6 6 7 7 5 4 4 3 3 3 2 2 3 4 4 4 4 4 4 5 5 4 5 6 7
12 12 12 14 15 14 12 11 10 10 12 13 12 10 10 10 11 12 12 12 12 12 12 11 11 11 11 11 10 10 9 10 10 11 11 12 12 12 12 12 11 11 10 10 9 9 8 8 9 9 9 8 9 10 9 9 8 7 7 7 6 5 6 6 5 4 3 3 2 2 2 3 4 5 5 4 4 4 4 4 5 5 5 6 8
13 12 12 14 14 13 12 12 11 11 13 13 13 12 12 13 15 16 15 13 12 11 10 9 8 8 7 7 7 7 7 6 7 7 8 9 11 10 10 11 11 11 10 10 10 10 9 8 9 10 10 9 9 9 10 10 9 8 7 6 6 5 5 4 4 3 2 2 2 2 2 3 4 4 5 4 4 4 4 4 5 5 6 7 8
14 12 12 13 13 13 13 13 12 13 13 13 14 15 15 17 17 16 15 13 11 10 9 8 7 7 6 6 5 5 4 3 4 5 6 8 9 8 9 10 10 10 10 10 10 10 9 8 8 10 11 10 10 9 10 10 9 9 7 6 6 6 5 4 3 2 1 1 1 1 2 2 3 3 4 4 5 5 5 5 5 7 7 8 8
15 13 13 13 13 14 13 13 13 14 14 14 15 16 17 17 15 13 11 11 11 10 10 9 9 8 7 6 5 4 3 3 3 4 5 7 8 8 8 9 9 9 10 10 10 10 9 8 9 11 12 11 11 11 10 9 9 8 6 5 6 5 5 3 3 2 2 1 1 2 2 3 4 4 5 5 5 5 5 6 7 7 8 8 7
16 15 14 14 15 15 13 13 14 15 16 16 17 18 17 15 14 12 12 12 12 12 11 11 11 10 10 9 8 6 5 4 3 2 3 5 6 7 8 8 9 9 10 10 10 10 10 9 9 11 12 12 11 11 11 11 10 7 6 6 6 6 5 4 3 3 2 1 1 2 3 4 5 6 6 6 6 6 6 6 7 7 7 7 7
17 16 14 15 16 15 14 14 16 16 16 17 17 17 16 15 14 15 15 15 14 13 12 11 10 10 10 9 8 6 5 4 3 3 2 2 4 6 7 8 9 10 10 10 11 10 10 10 9 10 11 12 11 12 12 12 9 8 8 8 7 6 5 5 5 3 2 2 1 2 4 4 5 5 6 6 6 6 6 6 6 6 7 7 7
18 17 16 16 17 16 15 16 17 16 17 17 18 18 17 16 17 17 17 16 14 13 12 11 9 8 8 7 6 4 3 2 2 2 1 1 1 3 5 8 10 11 10 11 11 11 11 10 10 10 11 12 12 12 11 9 8 8 8 7 6 5 5 5 5 5 4 3 2 3 4 4 4 5 5 6 5 5 5 5 5 6 6 6 6
19 19 17 18 18 17 17 18 18 17 17 18 19 18 19 19 19 18 17 15 14 12 11 10 9 7 6 5 4 3 2 1 1 1 2 2 2 2 3 6 9 11 11 11 11 11 11 10 10 11 12 12 13 11 9 8 8 7 7 7 6 5 5 6 6 6 5 4 3 3 4 4 4 5 5 5 5 5 4 4 4 5 5 5 5
20 20 19 19 19 18 18 18 18 18 19 20 20 20 21 22 20 19 17 15 13 12 10 9 8 6 4 3 3 3 3 3 3 3 3 4 4 3 3 4 6 9 12 12 12 12 11 11 11 11 11 12 12 11 10 9 8 7 7 9 9 8 7 8 8 8 6 5 4 3 3 3 4 4 4 4 4 4 3 3 3 4 4 4 4
Wind_Direction
232 232 230 229 227 223 216 206 204 196 187 180 175 176 174 168 162 160 157 150 136 116 96 80 69 81 98 96 100 111 123 137 144 151 152 151 149 142 126 113 106 99 95 92 90 88 87 86 84 83 80 77 74 71 67 63 61 61 62 63 64 66 69 73 72 70 71 73 79 86 90 95 101 105 109 109 110 112 110 109 108 106 104 105 105
230 233 231 230 227 219 211 206 206 197 189 183 179 179 175 174 170 170 167 161 149 126 107 91 79 90 111 118 117 123 132 140 146 153 155 156 154 147 131 120 112 105 101 98 96 92 91 90 87 84 82 79 76 74 70 66 63 62 63 64 67 68 70 74 74 72 73 74 78 84 88 92 96 100 103 106 113 115 109 106 107 105 100 102 104
210 218 225 225 220 213 208 205 204 197 191 186 182 180 176 177 177 178 175 170 163 144 130 115 111 118 127 136 132 135 142 143 148 156 159 159 157 152 139 127 120 113 108 105 103 99 95 93 91 86 83 82 80 77 72 68 65 65 65 66 68 70 72 74 75 73 73 75 76 81 86 89 92 94 96 100 108 112 110 108 107 104 97 98 100
200 201 213 216 212 209 205 202 200 196 194 189 185 182 178 180 182 183 182 178 175 165 154 146 147 153 145 144 147 150 153 149 153 161 163 162 159 158 147 134 127 122 115 113 111 105 100 97 94 89 85 84 81 77 74 70 67 67 68 68 69 72 74 75 77 74 73 75 77 79 82 86 90 92 94 97 103 109 112 109 105 104 100 100 102
199 194 203 210 210 207 204 201 199 198 198 194 190 186 183 183 186 187 186 185 183 179 171 165 165 174 164 156 162 163 163 156 158 165 167 165 163 164 157 142 135 130 123 120 118 112 106 101 98 94 88 84 82 79 76 73 71 70 70 70 70 73 75 77 78 77 74 74 76 78 80 83 86 89 91 94 99 104 108 108 105 104 103 102 101
195 188 196 206 211 209 206 203 201 201 201 198 193 189 187 187 189 191 190 189 188 187 182 179 179 186 181 170 170 169 168 165 166 169 170 169 168 169 166 152 143 139 131 127 124 119 114 108 103 98 91 87 85 82 79 77 75 73 73 72 73 73 75 77 79 79 76 74 76 78 79 81 83 85 87 89 91 94 97 98 97 96 95 94 94
188 188 195 204 210 212 210 206 204 203 203 199 195 191 190 190 192 194 195 193 193 194 191 188 189 193 191 178 173 171 171 174 173 173 174 171 172 172 171 163 151 146 140 135 131 127 122 116 110 104 98 92 89 85 80 79 78 76 75 74 74 75 75 77 80 81 79 77 76 77 78 79 81 83 84 85 86 87 87 88 87 86 85 85 85
190 194 199 206 210 214 212 208 205 204 204 199 194 192 192 193 195 198 199 199 199 199 196 194 195 197 197 187 177 174 174 179 179 177 176 173 175 178 177 171 158 152 149 144 140 136 131 123 117 111 105 99 95 89 82 82 81 79 78 75 75 76 77 78 79 81 81 79 78 77 77 78 79 81 82 83 83 84 84 84 84 83 83 83 82
202 203 206 209 212 214 211 207 205 205 204 198 194 192 191 194 199 203 204 205 205 203 201 200 201 202 204 196 183 177 176 181 183 180 179 175 179 183 182 178 166 161 159 156 151 146 139 131 123 118 113 107 101 93 86 85 84 82 80 78 77 76 77 78 79 81 82 81 79 78 77 77 78 79 80 81 81 82 82 83 83 83 83 83 82
215 217 215 211 211 211 207 205 204 205 203 197 193 189 190 194 201 206 208 209 208 206 204 206 206 206 209 207 195 184 180 184 185 182 181 179 182 186 186 183 176 172 170 168 164 157 148 140 134 127 122 117 108 99 93 89 87 85 84 82 81 80 79 79 80 80 82 83 81 79 78 78 78 78 78 79 79 80 80 80 81 81 81 81 80
224 223 217 210 209 207 204 202 200 199 198 195 191 186 188 194 201 205 208 210 209 208 206 208 210 211 214 214 205 190 185 187 187 184 184 185 187 189 189 188 186 184 180 178 176 168 157 150 146 138 131 126 116 107 100 96 92 88 87 87 85 84 83 82 81 82 82 82 83 82 80 80 79 78 78 78 78 78 79 79 79 79 78 78 79
224 220 214 209 207 205 203 198 192 190 194 193 187 184 186 190 197 200 202 206 207 207 207 210 212 215 219 217 209 199 192 190 190 189 190 193 193 194 195 194 193 193 190 187 185 180 169 161 160 155 143 136 129 119 112 106 98 91 89 90 90 89 88 87 85 85 85 85 84 83 83 82 81 79 79 78 78 77 78 77 77 77 77 77 77
221 216 211 208 206 202 199 193 186 187 191 188 184 184 186 188 192 195 198 202 205 206 206 211 214 217 220 220 215 208 200 195 194 193 196 199 200 201 201 200 198 199 199 196 194 189 181 175 175 174 160 149 147 139 129 120 109 99 93 92 95 94 92 92 91 88 88 87 86 85 84 83 83 81 80 79 78 77 77 76 76 76 76 76 75
219 217 211 206 203 197 193 188 182 184 186 182 182 185 186 187 191 194 196 200 205 207 209 214 217 218 220 222 221 214 207 202 198 197 201 204 205 207 207 206 205 204 203 204 205 200 193 187 184 189 182 167 162 162 156 141 131 111 101 98 99 99 97 97 95 93 90 89 88 87 86 84 83 82 81 81 79 78 77 76 75 75 75 74 74
211 215 211 204 198 191 187 184 179 180 180 179 182 185 184 186 192 195 198 201 205 208 212 217 220 222 222 224 224 219 211 208 204 201 205 209 210 211 211 209 210 211 208 207 210 211 205 195 190 196 197 190 182 178 180 172 160 136 118 113 111 109 105 102 100 98 96 95 93 90 88 85 83 82 81 80 80 78 77 76 75 74 73 72 72
202 206 205 199 191 185 184 181 175 176 178 179 180 181 181 185 194 199 202 203 206 211 216 220 223 223 223 223 225 222 215 211 208 206 209 213 214 215 215 213 213 217 216 212 211 214 214 210 202 196 199 223 219 196 192 198 196 181 155 142 135 132 121 115 109 105 103 101 100 96 91 86 84 81 79 78 76 75 74 73 73 72 72 71 70
195 193 194 190 183 178 180 177 169 169 173 174 173 176 182 188 196 202 207 208 210 213 217 221 222 222 222 223 225 224 221 216 213 213 213 214 216 219 219 217 217 220 222 219 215 214 217 221 214 197 196 223 230 216 205 208 214 210 200 194 174 163 154 139 128 120 112 106 102 98 92 87 83 80 78 75 73 72 71 69 68 68 68 68 67
190 183 182 180 176 172 171 167 160 163 168 171 175 181 186 192 199 206 209 211 213 215 219 220 218 217 217 218 222 223 222 220 218 215 214 215 216 218 220 219 219 222 225 224 222 221 221 227 225 213 210 223 229 225 220 218 220 221 216 215 213 203 192 179 162 147 134 120 108 101 96 89 84 79 76 73 71 70 69 67 63 61 62 63 63
189 182 177 173 170 167 165 163 161 165 171 175 181 186 190 196 202 209 210 212 214 216 219 219 214 208 206 209 214 216 217 218 218 214 211 214 215 215 216 218 221 223 225 226 227 227 228 232 230 225 227 232 233 230 229 227 227 228 224 219 221 223 219 217 201 182 171 154 135 119 108 97 87 79 74 70 67 65 65 64 61 58 57 56 54
194 185 175 169 168 167 168 168 167 170 174 177 181 182 188 197 203 208 209 212 214 217 220 219 213 203 198 200 203 205 211 212 209 209 207 209 212 210 208 213 218 220 221 219 218 219 220 224 226 231 239 240 239 235 232 233 233 233 231 225 223 225 227 231 231 218 206 201 196 179 149 122 95 76 66 61 56 54 56 57 56 54 54 51 47
201 187 174 171 173 174 175 173 173 177 178 181 185 183 189 199 206 207 209 213 215 218 218 218 215 211 211 212 211 207 209 208 201 199 198 198 202 198 192 193 198 201 201 194 189 191 194 207 225 249 260 253 248 241 235 235 236 236 236 232 227 227 229 233 238 238 236 233 233 236 226 215 230 3 19 21 21 23 31 37 39 41 45 44 41
203 193 181 179 183 187 188 184 186 188 188 195 197 196 200 204 207 207 209 215 217 218 215 216 217 218 222 219 216 208 202 202 198 194 189 186 188 183 174 171 174 177 179 172 169 173 178 199 237 279 283 279 270 255 241 237 237 238 238 237 234 230 231 234 237 240 243 246 249 253 255 260 269 283 302 318 330 341 352 3 10 15 20 23 25
197 191 185 185 189 197 215 214 210 208 206 211 209 208 212 210 208 204 207 214 216 217 215 216 214 211 212 209 212 207 194 191 192 193 189 181 179 174 165 163 165 167 172 172 172 179 189 207 252 284 282 289 284 267 251 242 238 239 239 239 239 236 234 235 237 239 242 247 254 259 263 268 275 282 288 298 307 314 324 332 338 342 345 349 354
193 181 172 162 148 151 209 242 241 238 231 230 224 221 223 219 211 205 209 214 214 213 211 212 211 206 206 204 207 204 194 198 200 198 192 185 178 172 167 168 172 176 189 204 205 206 228 252 266 272 273 282 275 260 251 244 238 238 239 240 241 241 240 238 239 241 242 245 252 259 265 270 277 282 288 294 301 306 312 314 316 319 322 326 332
187 175 158 148 141 158 177 220 266 262 254 250 240 228 227 224 212 204 205 208 210 211 212 213 213 210 207 204 204 206 210 218 211 198 193 189 181 177 185 196 200 195 203 221 231 243 262 269 268 268 275 275 261 245 241 237 235 234 235 238 240 243 243 242 242 244 246 246 250 257 263 269 274 280 286 292 297 301 304 304 306 308 312 316 321
199 194 193 187 182 193 205 224 245 255 257 251 242 230 223 219 210 203 200 203 209 214 218 218 216 212 210 208 209 212 213 210 202 197 197 194 191 194 203 205 208 209 216 231 247 259 265 268 274 279 277 266 244 230 232 231 230 229 229 232 236 241 244 244 242 245 249 251 251 255 260 266 270 276 282 287 291 294 295 297 300 303 307 309 311
214 211 214 211 212 226 234 239 244 244 246 244 241 232 220 215 211 206 203 205 211 217 220 220 218 215 210 205 201 199 196 193 195 198 196 194 195 199 200 200 209 225 235 243 250 254 259 272 279 276 268 253 225 214 221 224 224 225 225 227 233 238 243 246 245 245 249 253 254 255 259 264 268 272 276 280 284 287 290 292 296 299 301 302 302
215 213 220 230 229 235 237 237 240 235 234 237 236 227 217 213 212 211 209 208 213 218 220 219 219 215 204 197 191 187 186 189 193 192 187 186 187 191 197 204 216 230 238 241 243 248 260 271 268 261 254 242 215 203 210 216 219 220 221 223 230 236 241 246 248 247 248 253 256 257 259 263 267 270 273 275 280 284 287 290 294 297 299 301 299
211 213 224 241 229 226 232 231 232 229 227 230 227 220 215 213 215 217 214 214 219 221 218 216 217 213 201 193 189 187 189 192 192 188 183 185 188 196 206 212 218 227 231 234 241 251 259 258 252 248 243 233 218 204 204 209 213 215 215 220 227 233 239 244 247 247 247 251 255 259 260 262 266 268 271 275 280 284 288 292 296 299 301 301 298
212 213 222 240 233 230 234 231 230 227 224 223 220 217 215 215 219 219 215 218 225 225 220 212 210 210 199 192 191 191 193 193 192 189 187 191 196 203 211 219 223 225 228 236 244 246 246 244 241 239 234 230 221 208 203 203 204 202 205 213 220 226 234 239 243 244 245 249 253 258 261 263 266 269 275 280 284 288 292 295 298 299 299 298 296
220 218 220 227 230 235 237 234 232 227 223 220 220 220 221 224 223 223 219 214 218 225 223 212 205 206 198 191 192 193 193 192 191 192 193 196 199 207 223 233 228 224 229 235 235 235 235 236 234 229 229 229 223 212 203 200 197 192 196 204 209 217 228 234 238 241 244 247 250 255 261 266 271 278 285 288 290 292 293 295 296 294 292 291 291
231 225 224 227 233 242 244 239 235 231 228 226 225 221 228 234 230 232 226 214 216 222 223 215 208 210 205 196 193 191 193 194 194 195 197 199 204 223 234 233 229 229 230 228 227 231 231 229 225 223 226 227 223 214 203 201 195 189 192 195 199 210 223 230 235 240 244 248 250 255 263 272 280 286 291 292 293 294 294 295 294 291 289 288 287
244 228 229 234 236 241 242 238 234 234 235 236 232 220 228 238 235 239 234 221 223 227 227 223 216 215 213 206 198 197 195 191 193 197 199 202 211 228 234 232 235 236 232 229 229 231 228 224 219 217 221 224 221 212 203 201 197 192 190 188 192 202 216 227 236 244 248 253 254 254 262 270 276 281 286 290 295 299 300 300 296 290 289 288 286
198 230 239 241 234 232 234 235 232 232 234 239 239 225 231 238 231 233 233 223 219 225 226 218 212 212 213 210 205 207 199 183 186 200 207 213 217 224 231 235 238 238 235 231 235 236 231 223 215 210 213 219 218 209 203 202 200 195 187 185 197 204 211 218 230 247 251 252 250 246 249 253 259 267 278 290 313 322 314 308 297 288 291 296 294
166 207 236 240 233 230 233 238 239 237 236 237 237 232 233 236 232 227 230 225 209 211 212 200 205 211 213 213 210 212 203 180 186 203 218 221 218 225 234 245 250 255 248 232 236 239 230 222 211 205 208 213 213 206 203 204 203 200 192 195 210 213 216 214 215 240 246 244 245 240 238 242 245 245 312 340 9 350 326 312 299 302 313 315 308
201 213 228 236 236 234 237 243 248 246 239 229 224 233 235 238 239 227 226 226 207 208 205 195 203 209 211 214 211 207 200 196 202 210 228 233 235 243 248 252 256 261 253 233 231 232 225 219 211 209 211 210 209 205 202 203 201 208 214 213 209 203 210 218 206 218 232 232 237 214 164 127 91 66 45 27 21 6 350 345 334 341 343 333 321
217 225 230 237 240 240 241 248 252 251 244 227 213 225 235 238 237 223 216 217 210 211 206 198 202 206 207 205 203 201 199 211 216 219 235 243 247 251 250 251 252 255 248 231 225 226 221 213 210 215 216 210 206 205 203 203 203 210 217 206 191 182 195 213 192 186 210 202 164 117 109 100 86 66 49 38 33 30 18 5 353 352 347 338 330
221 229 232 234 239 243 245 249 250 247 247 238 220 221 230 232 227 215 211 211 210 212 209 202 201 204 205 201 202 207 207 212 219 228 241 249 250 248 246 249 252 252 246 233 224 222 217 207 208 216 216 209 206 207 205 204 207 202 190 176 165 165 184 191 168 178 197 147 116 106 100 92 84 68 46 33 33 37 24 10 357 349 342 336 334
222 228 232 233 237 245 248 249 249 241 238 237 232 225 224 226 221 213 210 211 213 216 214 206 201 202 204 206 210 214 214 215 226 239 246 250 250 248 248 247 247 246 241 233 225 221 216 207 208 213 211 206 208 214 211 203 203 197 186 168 157 162 177 171 165 186 174 130 114 105 96 87 79 64 32 8 9 12 24 31 9 356 350 347 348
219 223 229 233 237 243 245 246 247 237 229 230 231 226 224 225 219 211 211 214 216 217 214 205 201 203 205 210 214 217 221 226 235 240 242 245 247 247 248 245 241 241 239 235 229 226 221 211 210 210 204 202 209 217 209 195 188 193 191 172 162 162 165 166 170 171 153 130 113 96 86 80 70 48 9 348 351 356 4 4 356 3 8 2 0
219 219 224 231 235 237 239 241 239 226 221 224 229 226 224 223 214 210 212 210 206 200 196 194 194 198 203 208 214 219 225 232 236 238 240 244 245 243 243 242 237 235 238 237 232 230 225 215 212 210 202 198 205 211 206 187 176 185 185 168 162 163 164 165 160 152 142 122 98 86 76 57 29 6 350 347 352 352 342 331 337 358 356 343 348
219 216 221 229 232 233 235 231 219 208 210 215 223 223 215 210 205 204 198 186 175 168 164 167 174 183 194 204 212 219 227 235 240 244 245 245 243 240 240 238 234 231 233 234 231 229 223 214 211 210 207 204 203 205 205 188 176 182 179 165 166 174 168 158 150 147 140 114 89 78 55 21 3 358 357 360 357 347 337 330 334 343 336 333 339
219 215 220 227 229 231 227 212 199 196 204 207 209 208 201 194 186 180 175 168 163 162 161 162 168 179 193 205 215 224 231 237 242 244 242 239 236 236 237 234 229 225 226 229 230 229 219 209 209 208 206 207 207 205 202 194 185 186 184 175 177 181 165 151 148 149 138 107 79 57 34 18 13 12 16 18 8 351 339 331 330 331 329 331 334
223 219 222 226 228 226 212 198 194 193 202 204 194 189 188 182 172 168 168 167 166 166 167 168 172 181 192 204 214 222 231 235 234 230 226 226 226 228 229 226 223 220 222 227 228 225 215 206 206 206 203 200 202 202 199 197 189 187 189 182 179 177 163 157 160 157 142 102 76 50 35 29 19 12 11 12 5 354 338 329 326 325 326 329 332
225 219 223 227 225 216 199 193 193 188 192 193 183 178 180 175 168 168 168 165 164 164 165 167 168 173 181 189 194 201 215 215 213 215 216 219 222 223 219 219 219 218 220 224 225 223 217 210 207 202 200 196 192 195 201 201 193 191 194 185 181 178 170 176 184 181 189 159 72 33 31 22 360 344 342 349 353 349 340 333 332 330 333 335 337
225 218 221 225 217 204 194 192 190 183 182 181 176 174 174 170 167 167 162 155 157 159 157 154 150 149 150 149 146 145 147 151 174 203 211 215 217 218 215 217 219 216 217 222 224 224 218 215 213 204 200 198 194 194 201 207 203 202 205 195 188 184 179 194 209 211 235 264 2 20 18 350 332 326 327 337 344 343 341 339 338 339 343 346 346
227 219 219 222 210 198 193 190 184 180 178 177 174 172 168 166 165 162 156 154 156 154 147 139 133 130 127 123 119 116 115 119 135 170 202 215 217 218 215 214 215 215 217 220 223 224 220 218 216 209 206 205 204 202 203 207 206 205 213 211 200 192 189 203 214 222 248 276 349 354 343 330 324 322 324 332 336 336 338 340 343 348 353 355 356
228 221 219 217 205 196 190 184 181 178 177 175 171 168 167 166 165 162 159 158 156 150 141 134 129 124 119 115 113 112 113 117 123 125 145 203 219 224 221 218 217 217 219 221 222 222 221 222 218 213 212 211 211 211 205 204 205 205 211 214 208 200 201 212 219 221 228 249 302 323 321 321 322 321 319 323 329 330 336 344 349 355 358 1 9
229 221 217 211 199 192 186 181 179 177 175 172 168 168 169 168 167 166 163 160 155 147 140 134 129 121 115 109 102 100 107 120 136 145 147 172 215 227 228 226 223 222 222 220 219 220 219 221 219 214 212 209 210 215 209 205 211 208 209 216 216 213 217 219 220 211 210 235 278 304 312 317 316 311 307 312 321 327 339 351 353 355 1 12 27
228 222 215 205 197 191 185 181 179 176 172 170 170 171 172 170 169 168 164 159 154 146 139 136 131 123 113 95 74 57 40 19 324 240 226 229 237 245 238 232 227 225 224 218 214 215 215 215 215 213 211 207 207 213 209 205 212 208 205 214 214 215 220 211 205 203 207 227 254 278 293 301 301 299 301 308 317 327 340 351 352 358 10 27 39
227 222 213 201 196 191 185 181 179 176 173 172 173 173 174 174 170 167 164 159 153 147 145 144 141 135 117 75 35 12 358 343 326 300 261 238 234 242 250 245 234 226 225 222 215 210 209 211 213 211 213 213 212 212 206 203 209 210 209 214 209 203 205 204 199 199 206 222 240 264 274 281 288 293 302 313 319 326 340 348 357 8 20 36 45
Height
3159 3159 3160 3162 3163 3164 3165 3165 3166 3166 3166 3166 3167 3167 3168 3169 3170 3171 3172 3173 3174 3175 3175 3176 3176 3176 3177 3177 3178 3178 3178 3179 3179 3180 3181 3182 3182 3182 3183 3183 3183 3184 3184 3184 3184 3185 3185 3184 3184 3184 3183 3183 3183 3182 3182 3181 3181 3180 3179 3178 3177 3175 3174 3172 3171 3171 3170 3170 3169 3169 3168 3168 3169 3170 3171 3171 3172 3173 3173 3173 3173 3174 3174 3175 3175
3157 3158 3159 3161 3162 3163 3164 3165 3165 3165 3165 3166 3166 3167 3168 3169 3170 3171 3172 3173 3173 3174 3175 3176 3176 3176 3177 3177 3178 3178 3179 3179 3180 3181 3181 3182 3183 3183 3183 3184 3184 3185 3185 3185 3186 3186 3186 3186 3185 3185 3185 3184 3184 3184 3183 3183 3182 3182 3181 3180 3179 3177 3176 3174 3173 3173 3172 3172 3171 3171 3171 3171 3171 3171 3172 3173 3173 3174 3174 3174 3175 3175 3175 3176 3176
3155 3157 3158 3160 3161 3162 3163 3164 3164 3164 3165 3165 3166 3167 3168 3169 3170 3170 3171 3172 3173 3174 3175 3175 3176 3177 3177 3177 3178 3178 3179 3179 3180 3181 3182 3183 3183 3183 3184 3184 3185 3186 3186 3186 3186 3187 3187 3187 3187 3186 3186 3186 3186 3185 3185 3185 3184 3183 3183 3182 3181 3180 3178 3176 3175 3175 3174 3174 3173 3173 3173 3173 3173 3173 3174 3174 3175 3175 3176 3176 3176 3176 3176 3177 3177
3155 3156 3157 3159 3160 3162 3162 3163 3163 3164 3164 3165 3166 3167 3168 3168 3169 3170 3171 3172 3173 3174 3175 3176 3176 3177 3177 3178 3178 3179 3179 3179 3180 3181 3182 3183 3184 3184 3184 3185 3186 3186 3187 3187 3187 3187 3188 3188 3188 3188 3188 3187 3187 3187 3187 3186 3186 3185 3185 3184 3183 3182 3181 3179 3177 3177 3177 3176 3176 3175 3175 3175 3175 3175 3176 3176 3176 3177 3177 3177 3177 3177 3177 3177 3178
3154 3155 3157 3158 3160 3161 3161 3162 3163 3163 3164 3165 3165 3166 3167 3168 3169 3170 3171 3172 3173 3174 3175 3176 3176 3177 3177 3178 3178 3179 3179 3179 3180 3181 3182 3183 3184 3184 3185 3185 3186 3187 3187 3188 3188 3188 3188 3189 3189 3189 3189 3189 3188 3188 3188 3188 3188 3187 3187 3186 3185 3184 3183 3182 3180 3179 3179 3179 3178 3178 3177 3177 3177 3177 3177 3178 3178 3178 3179 3179 3179 3179 3179 3179 3179
3154 3155 3157 3158 3159 3160 3161 3161 3162 3163 3164 3164 3165 3166 3167 3168 3169 3170 3171 3172 3173 3174 3175 3176 3176 3177 3178 3178 3178 3179 3179 3180 3180 3181 3182 3183 3184 3184 3185 3186 3186 3187 3188 3188 3188 3189 3189 3190 3190 3190 3190 3190 3190 3190 3190 3190 3189 3189 3188 3188 3187 3186 3186 3185 3183 3182 3181 3181 3181 3180 3179 3179 3179 3179 3179 3180 3180 3180 3180 3181 3181 3181 3180 3180 3180
3154 3155 3157 3158 3159 3160 3160 3161 3162 3163 3164 3164 3165 3166 3167 3168 3169 3170 3171 3171 3172 3173 3174 3175 3176 3177 3178 3178 3178 3179 3179 3180 3180 3181 3182 3183 3184 3184 3185 3186 3186 3187 3188 3188 3189 3189 3190 3190 3191 3191 3191 3191 3191 3191 3191 3191 3191 3191 3190 3189 3189 3189 3188 3187 3186 3185 3184 3184 3183 3183 3182 3182 3182 3181 3181 3182 3182 3182 3182 3182 3182 3182 3182 3182 3182
3154 3156 3157 3158 3159 3159 3160 3161 3162 3163 3164 3165 3166 3166 3167 3168 3168 3169 3170 3171 3172 3173 3174 3175 3176 3177 3177 3178 3178 3179 3179 3180 3180 3181 3182 3183 3184 3184 3185 3186 3187 3188 3188 3189 3189 3190 3190 3191 3191 3191 3192 3192 3192 3192 3193 3193 3192 3192 3191 3191 3191 3190 3190 3190 3189 3187 3186 3186 3185 3185 3184 3184 3184 3184 3184 3184 3184 3184 3184 3184 3184 3184 3184 3184 3184
3155 3155 3156 3157 3158 3159 3160 3161 3162 3163 3164 3165 3166 3166 3167 3167 3168 3169 3169 3170 3171 3173 3174 3175 3175 3176 3177 3177 3178 3179 3179 3180 3180 3181 3181 3182 3183 3184 3185 3186 3187 3188 3189 3189 3190 3190 3191 3192 3192 3192 3193 3193 3193 3193 3194 3194 3194 3193 3193 3192 3192 3192 3192 3192 3191 3190 3189 3188 3188 3187 3187 3186 3186 3186 3186 3186 3186 3186 3186 3186 3186 3186 3185 3185 3185
3155 3155 3156 3157 3157 3158 3159 3160 3161 3163 3164 3165 3165 3166 3167 3167 3168 3168 3169 3170 3171 3172 3173 3174 3175 3176 3176 3177 3178 3178 3179 3179 3180 3180 3181 3182 3183 3184 3185 3186 3187 3187 3188 3189 3190 3191 3192 3192 3192 3193 3194 3194 3194 3194 3195 3195 3195 3195 3194 3194 3194 3194 3194 3193 3193 3192 3191 3191 3190 3189 3189 3189 3189 3189 3188 3188 3188 3188 3188 3188 3188 3187 3187 3187 3186
3155 3155 3156 3156 3157 3157 3158 3159 3161 3162 3163 3164 3165 3165 3166 3167 3167 3168 3169 3170 3171 3172 3173 3173 3174 3175 3175 3176 3177 3178 3178 3179 3179 3180 3180 3181 3182 3183 3184 3185 3186 3187 3188 3189 3190 3192 3192 3193 3193 3194 3195 3195 3195 3195 3196 3196 3196 3196 3195 3195 3195 3195 3195 3195 3195 3194 3194 3193 3192 3192 3191 3191 3191 3191 3191 3190 3190 3190 3190 3190 3190 3189 3189 3188 3188
3154 3155 3155 3155 3156 3156 3158 3159 3161 3162 3163 3164 3164 3165 3165 3166 3167 3168 3169 3170 3171 3172 3172 3172 3173 3174 3175 3176 3176 3177 3177 3178 3178 3179 3179 3180 3182 3183 3183 3184 3186 3187 3188 3189 3191 3192 3193 3194 3194 3194 3195 3196 3196 3196 3196 3197 3197 3197 3197 3196 3196 3196 3196 3196 3196 3196 3196 3195 3195 3194 3193 3193 3193 3193 3192 3192 3192 3192 3192 3192 3191 3191 3191 3190 3190
3153 3154 3154 3155 3155 3156 3158 3159 3161 3162 3162 3163 3163 3164 3165 3166 3167 3168 3169 3170 3170 3171 3171 3172 3172 3173 3174 3175 3176 3176 3177 3177 3178 3178 3179 3179 3181 3182 3183 3184 3185 3186 3187 3189 3190 3192 3193 3194 3194 3194 3195 3196 3197 3197 3197 3198 3198 3198 3197 3197 3197 3197 3198 3197 3197 3197 3197 3197 3196 3196 3195 3195 3194 3194 3194 3194 3194 3194 3194 3193 3193 3193 3192 3192 3192
3153 3153 3154 3154 3155 3156 3157 3159 3160 3161 3162 3162 3163 3164 3165 3166 3167 3168 3169 3169 3169 3170 3170 3171 3171 3172 3173 3174 3175 3175 3176 3177 3177 3177 3178 3178 3179 3180 3182 3183 3184 3186 3187 3188 3190 3191 3192 3194 3194 3195 3195 3196 3197 3198 3198 3198 3199 3198 3198 3198 3198 3198 3199 3199 3198 3199 3199 3198 3198 3197 3197 3196 3196 3196 3195 3195 3195 3195 3195 3195 3195 3194 3194 3194 3194
3153 3154 3154 3154 3155 3156 3157 3158 3160 3161 3161 3162 3163 3164 3165 3166 3167 3167 3168 3168 3169 3169 3170 3170 3171 3172 3173 3173 3174 3175 3175 3176 3176 3177 3176 3177 3178 3179 3181 3182 3183 3185 3186 3187 3189 3191 3192 3193 3194 3195 3195 3196 3197 3198 3198 3199 3199 3199 3199 3199 3199 3199 3199 3199 3199 3199 3200 3199 3199 3198 3198 3198 3197 3197 3197 3197 3197 3197 3196 3196 3196 3196 3196 3195 3195
3153 3153 3154 3154 3155 3156 3157 3158 3160 3160 3161 3162 3163 3164 3165 3165 3166 3166 3166 3167 3168 3168 3169 3169 3170 3171 3172 3172 3173 3174 3175 3175 3176 3176 3176 3176 3177 3179 3180 3181 3183 3184 3185 3187 3188 3190 3191 3193 3194 3195 3196 3197 3197 3198 3198 3199 3199 3199 3199 3199 3199 3200 3200 3200 3200 3200 3200 3200 3200 3200 3199 3199 3198 3198 3198 3198 3198 3198 3198 3198 3197 3197 3197 3197 3196
3152 3153 3154 3155 3156 3157 3158 3159 3160 3160 3161 3162 3163 3163 3164 3164 3165 3165 3166 3166 3167 3167 3168 3168 3169 3170 3171 3172 3172 3173 3174 3175 3175 3175 3175 3176 3177 3178 3179 3181 3182 3183 3185 3186 3187 3189 3190 3192 3193 3194 3195 3196 3197 3198 3198 3199 3199 3199 3199 3199 3199 3200 3200 3200 3200 3201 3201 3201 3201 3200 3200 3200 3199 3199 3199 3199 3199 3199 3198 3198 3198 3198 3198 3198 3198
3152 3152 3154 3155 3156 3157 3158 3159 3160 3160 3161 3161 3162 3162 3163 3163 3164 3165 3165 3165 3166 3166 3167 3167 3168 3169 3170 3171 3172 3172 3173 3174 3174 3175 3175 3175 3176 3177 3178 3180 3181 3182 3184 3186 3187 3188 3189 3191 3192 3193 3195 3196 3196 3197 3198 3198 3199 3199 3199 3199 3199 3200 3200 3200 3200 3201 3201 3201 3201 3201 3201 3200 3200 3200 3200 3200 3200 3200 3199 3199 3199 3199 3199 3199 3199
3152 3153 3154 3155 3156 3157 3158 3159 3159 3159 3160 3160 3161 3161 3162 3163 3163 3164 3164 3164 3165 3165 3166 3166 3167 3168 3169 3170 3171 3172 3172 3173 3174 3174 3175 3175 3175 3176 3177 3178 3179 3181 3183 3185 3186 3187 3188 3189 3191 3192 3194 3195 3196 3196 3197 3198 3198 3198 3199 3199 3199 3200 3200 3200 3200 3200 3201 3201 3201 3201 3201 3201 3201 3201 3200 3200 3200 3200 3200 3200 3200 3200 3200 3200 3200
3152 3152 3154 3155 3156 3157 3157 3157 3158 3158 3159 3159 3160 3160 3161 3162 3162 3163 3163 3163 3164 3164 3165 3165 3167 3168 3169 3169 3170 3171 3172 3172 3173 3174 3174 3174 3174 3175 3176 3177 3178 3180 3181 3183 3185 3186 3187 3188 3190 3191 3193 3194 3195 3195 3196 3197 3197 3197 3198 3198 3199 3199 3200 3200 3200 3200 3200 3201 3201 3201 3201 3201 3201 3201 3201 3201 3201 3201 3201 3201 3201 3201 3200 3200 3200
3151 3152 3153 3154 3155 3155 3156 3156 3156 3157 3158 3158 3159 3159 3160 3161 3161 3162 3162 3163 3163 3164 3164 3165 3166 3167 3168 3168 3169 3169 3171 3172 3172 3173 3174 3174 3174 3175 3176 3177 3178 3179 3180 3182 3183 3185 3186 3187 3189 3190 3191 3193 3193 3194 3195 3195 3196 3196 3196 3197 3198 3199 3199 3199 3199 3200 3200 3200 3201 3201 3201 3201 3201 3201 3201 3201 3201 3201 3201 3201 3201 3201 3201 3201 3201
3151 3152 3152 3153 3154 3154 3155 3155 3156 3156 3157 3157 3158 3158 3159 3160 3160 3161 3162 3162 3163 3163 3164 3164 3165 3166 3167 3167 3167 3168 3170 3171 3172 3173 3173 3174 3174 3174 3176 3177 3178 3179 3180 3181 3183 3184 3185 3186 3188 3189 3190 3191 3192 3193 3193 3194 3194 3194 3195 3196 3197 3198 3198 3199 3199 3199 3199 3199 3200 3200 3200 3200 3201 3201 3201 3201 3201 3201 3201 3201 3201 3201 3201 3201 3201
3151 3152 3152 3153 3154 3154 3155 3155 3155 3156 3156 3156 3157 3157 3158 3158 3159 3160 3161 3161 3162 3162 3163 3163 3164 3165 3165 3166 3167 3167 3169 3170 3171 3172 3173 3174 3174 3174 3175 3176 3177 3178 3179 3181 3182 3183 3184 3184 3186 3187 3189 3190 3191 3191 3191 3192 3192 3192 3193 3194 3196 3196 3197 3197 3198 3198 3198 3198 3199 3199 3199 3200 3200 3200 3200 3201 3201 3201 3201 3201 3201 3201 3201 3201 3201
3151 3151 3152 3153 3153 3154 3154 3154 3155 3155 3155 3156 3156 3156 3157 3158 3158 3159 3160 3160 3161 3162 3162 3162 3163 3164 3164 3165 3166 3166 3168 3169 3171 3172 3173 3173 3174 3175 3175 3176 3177 3177 3179 3180 3181 3182 3183 3183 3184 3186 3187 3188 3189 3189 3190 3190 3190 3191 3192 3193 3194 3195 3195 3196 3196 3197 3197 3198 3198 3198 3199 3199 3199 3199 3200 3200 3200 3200 3201 3201 3200 3200 3200 3200 3200
3150 3151 3151 3152 3152 3152 3152 3153 3153 3154 3154 3154 3155 3155 3156 3157 3157 3158 3159 3159 3160 3161 3161 3162 3162 3163 3164 3165 3166 3166 3168 3169 3170 3171 3172 3173 3174 3175 3176 3175 3176 3176 3178 3179 3180 3181 3182 3182 3183 3184 3185 3186 3187 3188 3188 3188 3188 3189 3190 3191 3192 3192 3193 3193 3195 3195 3196 3197 3197 3197 3198 3198 3198 3198 3199 3199 3199 3200 3200 3200 3200 3200 3200 3200 3200
3149 3150 3150 3150 3151 3151 3151 3151 3152 3152 3153 3153 3154 3155 3155 3156 3157 3157 3158 3159 3159 3160 3160 3161 3161 3162 3163 3164 3165 3166 3167 3168 3169 3171 3171 3173 3174 3175 3176 3175 3176 3176 3177 3178 3179 3180 3180 3181 3181 3182 3183 3185 3186 3186 3186 3186 3186 3187 3188 3190 3190 3190 3190 3191 3193 3194 3194 3195 3196 3196 3196 3197 3197 3197 3198 3198 3198 3198 3198 3199 3199 3199 3199 3199 3199
3147 3148 3148 3149 3149 3149 3149 3150 3150 3151 3151 3152 3153 3154 3155 3155 3156 3157 3157 3158 3158 3158 3159 3159 3160 3161 3162 3163 3164 3165 3166 3167 3169 3170 3171 3172 3173 3175 3175 3175 3176 3176 3176 3177 3178 3179 3179 3180 3180 3181 3182 3183 3184 3184 3184 3184 3185 3186 3187 3188 3188 3188 3189 3190 3191 3192 3193 3193 3194 3195 3195 3196 3196 3196 3197 3197 3197 3197 3197 3197 3198 3198 3198 3198 3198
3146 3146 3147 3148 3148 3148 3148 3148 3148 3149 3149 3151 3152 3153 3154 3154 3155 3156 3156 3157 3157 3157 3157 3158 3159 3160 3161 3162 3163 3164 3165 3166 3167 3169 3170 3172 3173 3174 3174 3175 3175 3176 3176 3176 3177 3178 3178 3179 3179 3180 3181 3182 3182 3183 3183 3183 3184 3185 3186 3187 3187 3187 3188 3189 3190 3191 3192 3192 3192 3193 3194 3194 3194 3195 3195 3195 3196 3196 3196 3196 3197 3197 3197 3197 3197
3145 3146 3147 3147 3147 3147 3147 3147 3148 3148 3148 3150 3151 3152 3152 3153 3154 3154 3155 3156 3156 3156 3156 3156 3158 3159 3160 3161 3162 3162 3163 3165 3166 3168 3170 3171 3172 3173 3174 3174 3175 3175 3175 3176 3176 3177 3177 3178 3178 3179 3180 3180 3181 3181 3182 3183 3183 3184 3185 3185 3185 3186 3187 3188 3189 3190 3190 3191 3191 3191 3192 3192 3193 3193 3193 3194 3194 3194 3194 3194 3195 3196 3196 3196 3195
3145 3145 3146 3146 3146 3146 3146 3147 3147 3147 3147 3148 3150 3150 3151 3152 3152 3153 3154 3154 3154 3154 3154 3155 3156 3158 3159 3160 3161 3161 3162 3164 3166 3167 3169 3170 3171 3173 3173 3174 3174 3174 3175 3175 3176 3176 3176 3177 3177 3178 3178 3179 3180 3180 3181 3182 3183 3183 3184 3184 3184 3185 3186 3186 3187 3188 3189 3189 3190 3190 3190 3191 3191 3192 3192 3192 3192 3192 3192 3193 3194 3194 3194 3194 3194
3144 3144 3145 3145 3146 3146 3146 3146 3146 3146 3146 3147 3149 3149 3150 3150 3151 3151 3151 3151 3152 3152 3153 3154 3156 3157 3158 3159 3159 3160 3162 3163 3165 3167 3168 3170 3171 3172 3173 3173 3173 3174 3174 3174 3175 3175 3175 3176 3176 3177 3178 3178 3179 3180 3181 3182 3182 3183 3183 3183 3184 3184 3185 3185 3186 3187 3188 3188 3189 3189 3189 3189 3190 3190 3190 3190 3191 3191 3191 3192 3192 3192 3192 3192 3192
3144 3144 3144 3144 3145 3145 3145 3144 3144 3144 3145 3146 3147 3148 3148 3149 3150 3150 3150 3150 3150 3151 3152 3154 3155 3156 3157 3158 3158 3159 3161 3163 3165 3166 3167 3169 3170 3171 3172 3172 3173 3173 3173 3173 3174 3174 3174 3175 3176 3176 3177 3177 3178 3179 3181 3181 3181 3181 3181 3182 3183 3183 3184 3185 3186 3186 3187 3187 3187 3188 3188 3189 3189 3189 3189 3189 3189 3190 3190 3190 3190 3190 3190 3191 3191
3143 3143 3143 3143 3144 3143 3143 3143 3143 3143 3143 3143 3146 3148 3147 3148 3149 3148 3149 3150 3149 3150 3152 3153 3154 3155 3156 3157 3158 3158 3159 3161 3164 3165 3167 3168 3169 3171 3171 3172 3172 3172 3173 3173 3173 3173 3174 3174 3175 3176 3176 3177 3177 3179 3180 3180 3180 3180 3181 3182 3182 3183 3183 3184 3185 3185 3186 3186 3187 3187 3188 3188 3188 3188 3188 3188 3188 3189 3189 3189 3189 3189 3189 3189 3189
3142 3142 3142 3142 3142 3142 3142 3142 3141 3141 3141 3141 3143 3146 3145 3146 3147 3147 3148 3149 3149 3150 3151 3151 3153 3154 3155 3157 3158 3158 3159 3160 3163 3165 3166 3168 3169 3170 3170 3171 3171 3172 3172 3172 3172 3173 3173 3174 3175 3175 3176 3176 3177 3178 3179 3179 3179 3179 3181 3182 3182 3182 3183 3183 3184 3185 3185 3186 3186 3187 3187 3187 3187 3187 3187 3187 3188 3188 3188 3188 3187 3188 3188 3188 3188
3140 3141 3140 3140 3141 3141 3141 3140 3140 3140 3140 3142 3142 3143 3144 3145 3146 3146 3147 3148 3149 3150 3150 3151 3153 3154 3155 3156 3157 3159 3160 3160 3162 3164 3166 3167 3168 3169 3169 3170 3171 3171 3171 3171 3171 3172 3173 3174 3174 3175 3175 3176 3177 3177 3178 3178 3178 3179 3181 3182 3182 3182 3183 3183 3183 3184 3185 3185 3185 3186 3186 3186 3186 3186 3186 3186 3187 3188 3187 3187 3187 3187 3187 3187 3187
3139 3139 3139 3139 3139 3139 3140 3139 3139 3138 3139 3142 3142 3142 3143 3144 3145 3145 3146 3147 3148 3149 3150 3151 3152 3153 3154 3155 3157 3159 3160 3160 3162 3164 3165 3166 3167 3168 3169 3169 3170 3170 3170 3170 3171 3171 3172 3173 3174 3174 3174 3175 3176 3176 3177 3177 3178 3179 3180 3181 3182 3182 3183 3183 3183 3183 3184 3185 3185 3185 3185 3186 3185 3185 3185 3186 3187 3187 3187 3186 3186 3186 3186 3186 3186
3137 3137 3137 3138 3138 3138 3138 3138 3138 3137 3137 3139 3142 3143 3143 3143 3144 3144 3145 3146 3147 3148 3149 3150 3152 3153 3154 3155 3157 3158 3158 3160 3162 3163 3164 3165 3166 3167 3167 3168 3169 3169 3169 3170 3170 3171 3172 3173 3173 3174 3174 3175 3175 3176 3176 3176 3177 3178 3179 3180 3181 3182 3183 3183 3183 3183 3184 3184 3185 3185 3185 3185 3185 3185 3185 3186 3187 3187 3187 3186 3186 3186 3185 3185 3185
3136 3136 3136 3137 3138 3137 3137 3137 3136 3136 3136 3136 3140 3142 3142 3142 3143 3143 3144 3145 3146 3147 3149 3150 3151 3152 3154 3155 3157 3158 3157 3160 3162 3163 3164 3164 3165 3166 3166 3167 3168 3168 3168 3169 3170 3171 3171 3172 3173 3173 3173 3174 3175 3175 3176 3176 3176 3178 3179 3180 3181 3181 3182 3183 3182 3183 3184 3184 3184 3185 3185 3185 3185 3185 3185 3185 3186 3187 3187 3187 3186 3186 3185 3185 3185
3135 3135 3135 3136 3137 3137 3136 3136 3135 3135 3136 3136 3138 3140 3140 3141 3142 3142 3143 3144 3145 3147 3148 3149 3151 3152 3154 3155 3157 3158 3158 3160 3161 3162 3163 3163 3164 3165 3165 3166 3167 3167 3167 3168 3169 3170 3171 3172 3172 3172 3173 3174 3174 3174 3175 3176 3176 3177 3178 3179 3180 3181 3182 3182 3182 3183 3184 3184 3184 3184 3185 3185 3185 3185 3185 3185 3186 3186 3187 3187 3186 3186 3185 3185 3185
3134 3134 3134 3135 3135 3136 3135 3135 3135 3135 3135 3136 3137 3138 3139 3140 3141 3142 3143 3144 3145 3147 3148 3149 3150 3152 3154 3155 3157 3158 3159 3160 3160 3161 3162 3163 3163 3164 3165 3165 3165 3166 3166 3167 3168 3169 3170 3171 3171 3172 3172 3173 3173 3173 3175 3176 3176 3177 3178 3179 3180 3181 3181 3182 3182 3183 3183 3184 3184 3184 3184 3185 3185 3185 3185 3185 3185 3186 3186 3186 3186 3186 3185 3185 3185
3133 3133 3133 3134 3134 3134 3134 3134 3134 3134 3134 3135 3136 3137 3138 3139 3141 3142 3143 3144 3145 3146 3147 3149 3150 3152 3153 3155 3156 3157 3158 3159 3160 3160 3161 3162 3162 3163 3164 3164 3165 3165 3166 3166 3167 3169 3170 3171 3171 3171 3172 3172 3173 3173 3174 3176 3176 3177 3178 3178 3179 3180 3181 3181 3182 3182 3183 3183 3184 3184 3184 3184 3184 3185 3185 3185 3185 3185 3185 3185 3185 3185 3185 3185 3185
3131 3132 3132 3132 3132 3132 3133 3133 3134 3134 3134 3134 3135 3136 3137 3139 3140 3142 3143 3144 3145 3146 3147 3149 3150 3152 3153 3154 3155 3156 3157 3158 3158 3159 3160 3160 3161 3162 3162 3163 3164 3164 3165 3165 3166 3168 3169 3170 3170 3171 3171 3172 3172 3173 3174 3176 3176 3176 3177 3178 3179 3179 3180 3181 3181 3182 3182 3183 3183 3183 3184 3184 3184 3184 3184 3185 3185 3185 3185 3185 3185 3185 3185 3185 3184
3130 3130 3131 3131 3131 3131 3132 3132 3133 3133 3132 3133 3134 3135 3137 3139 3140 3141 3143 3145 3146 3147 3148 3149 3150 3152 3153 3154 3155 3156 3156 3157 3157 3158 3158 3159 3160 3160 3161 3162 3163 3163 3164 3165 3166 3167 3168 3169 3169 3170 3171 3171 3172 3172 3174 3174 3175 3176 3177 3177 3178 3178 3179 3180 3181 3181 3182 3182 3183 3183 3183 3184 3184 3184 3184 3184 3184 3184 3184 3184 3184 3184 3184 3184 3184
3129 3129 3129 3130 3130 3130 3131 3131 3131 3131 3131 3132 3133 3135 3137 3138 3139 3141 3143 3145 3146 3147 3148 3149 3150 3151 3152 3153 3154 3155 3156 3156 3156 3156 3157 3158 3158 3159 3160 3161 3162 3162 3163 3164 3165 3166 3167 3168 3169 3169 3170 3171 3171 3172 3173 3174 3174 3175 3176 3177 3178 3178 3179 3180 3180 3181 3181 3182 3183 3183 3183 3183 3183 3183 3184 3184 3184 3184 3184 3184 3184 3184 3184 3183 3183
3128 3128 3128 3129 3129 3129 3130 3130 3130 3130 3131 3131 3133 3135 3136 3138 3139 3141 3143 3145 3146 3147 3148 3149 3150 3151 3152 3153 3154 3154 3155 3155 3155 3156 3156 3157 3158 3159 3159 3160 3161 3161 3162 3163 3164 3165 3166 3168 3168 3169 3169 3170 3171 3172 3172 3174 3174 3175 3176 3177 3177 3178 3179 3180 3180 3181 3181 3182 3183 3183 3183 3183 3183 3183 3184 3184 3184 3184 3184 3184 3183 3183 3182 3182 3182
3126 3127 3127 3127 3128 3128 3129 3129 3129 3130 3131 3132 3133 3135 3137 3139 3141 3142 3144 3145 3146 3147 3148 3150 3151 3152 3152 3153 3154 3154 3154 3155 3155 3155 3156 3156 3157 3158 3158 3159 3159 3160 3161 3162 3163 3164 3165 3166 3167 3168 3168 3169 3170 3171 3172 3173 3174 3174 3176 3176 3177 3177 3178 3179 3180 3180 3181 3182 3182 3183 3183 3183 3183 3183 3183 3183 3183 3183 3183 3183 3183 3182 3182 3182 3181
3125 3125 3126 3126 3127 3128 3128 3129 3129 3129 3131 3132 3134 3136 3138 3140 3141 3143 3144 3145 3146 3148 3149 3150 3151 3152 3152 3153 3154 3154 3154 3155 3155 3155 3155 3156 3156 3157 3158 3158 3158 3159 3160 3161 3161 3162 3164 3165 3166 3167 3168 3169 3170 3170 3171 3172 3173 3174 3175 3176 3176 3177 3178 3179 3179 3180 3180 3181 3182 3182 3182 3182 3182 3182 3183 3183 3183 3182 3182 3182 3182 3182 3181 3181 3181
3124 3124 3125 3125 3126 3127 3128 3129 3129 3129 3131 3132 3134 3136 3138 3140 3141 3143 3144 3145 3146 3148 3149 3150 3151 3152 3152 3153 3154 3154 3154 3155 3155 3155 3155 3155 3156 3156 3157 3157 3158 3158 3159 3160 3160 3161 3163 3164 3165 3167 3168 3169 3169 3169 3170 3172 3173 3174 3174 3175 3176 3177 3178 3178 3179 3179 3180 3181 3181 3182 3182 3182 3182 3182 3182 3182 3182 3182 3182 3181 3181 3181 3181 3181 3181
3122 3123 3123 3124 3125 3126 3127 3128 3129 3129 3131 3133 3135 3137 3138 3139 3141 3142 3144 3145 3146 3147 3149 3150 3151 3151 3152 3153 3153 3154 3154 3154 3155 3155 3155 3155 3155 3155 3156 3156 3157 3157 3158 3159 3159 3160 3161 3163 3164 3166 3167 3168 3169 3168 3170 3172 3173 3173 3174 3174 3175 3176 3177 3178 3178 3179 3179 3180 3181 3181 3181 3181 3181 3181 3181 3181 3181 3181 3181 3181 3181 3180 3180 3180 3180
3121 3122 3122 3123 3125 3126 3127 3128 3129 3129 3131 3133 3135 3136 3138 3139 3140 3142 3144 3145 3146 3147 3148 3149 3150 3151 3152 3152 3153 3153 3153 3153 3154 3154 3154 3155 3155 3155 3155 3155 3156 3157 3157 3158 3158 3159 3160 3162 3163 3165 3166 3167 3168 3168 3170 3171 3172 3172 3173 3174 3174 3175 3176 3177 3178 3178 3179 3179 3180 3180 3180 3180 3180 3180 3180 3181 3181 3181 3181 3181 3180 3180 3180 3180 3180
3119 3120 3121 3122 3124 3125 3126 3127 3128 3129 3130 3132 3134 3135 3137 3138 3140 3142 3143 3144 3145 3146 3147 3149 3150 3151 3151 3152 3152 3152 3152 3153 3153 3153 3153 3154 3154 3154 3154 3155 3155 3156 3156 3157 3158 3158 3160 3161 3162 3163 3165 3166 3167 3168 3169 3170 3171 3171 3172 3172 3172 3173 3174 3175 3176 3177 3178 3178 3179 3179 3179 3179 3179 3179 3180 3180 3180 3180 3180 3180 3180 3180 3180 3180 3180